When you browse on this site, cookies collect data to enhance your experience and personalize the content and advertising you see.
Visit our Privacy Policy to learn more. By continuing to use the site, you agree to this use of cookies and data.
  • In Sweden
  • List of Countries
  • For 7 days
  • Water Temperature
  • Weather Map
  • Weather Widgets
  • user-avatar
    Login

    Hourly Weather Ouahigouya

    Today, 2 April, Thursday

    Time Temperature Precipitation Wind Pressure Humidity
    00:00 +32°C° 0 mm 5 mps 728 mmHg 12%
    01:00 +32°C° 0 mm 4 mps 728 mmHg 11%
    02:00 +30°C° 0 mm 4 mps 727 mmHg 11%
    03:00 +30°C° 0 mm 4 mps 727 mmHg 10%
    04:00 +29°C° 0 mm 4 mps 727 mmHg 10%
    05:00 +29°C° 0 mm 5 mps 727 mmHg 9%
    06:00 +28°C° 0 mm 5 mps 727 mmHg 9%
    07:00 +32°C° 0 mm 5 mps 728 mmHg 7%
    08:00 +35°C° 0 mm 6 mps 728 mmHg 6%
    09:00 +39°C° 0 mm 7 mps 729 mmHg 5%
    10:00 +41°C° 0 mm 6 mps 729 mmHg 5%
    11:00 +43°C° 0 mm 5 mps 728 mmHg 5%
    12:00 +45°C° 0 mm 4 mps 728 mmHg 5%
    13:00 +45°C° 0 mm 3 mps 727 mmHg 5%
    14:00 +45°C° 0 mm 3 mps 726 mmHg 5%
    15:00 +46°C° 0 mm 2 mps 726 mmHg 6%
    16:00 +43°C° 0 mm 2 mps 726 mmHg 6%
    17:00 +42°C° 0 mm 2 mps 726 mmHg 7%
    18:00 +40°C° 0 mm 2 mps 726 mmHg 8%
    19:00 +38°C° 0 mm 2 mps 726 mmHg 9%
    20:00 +37°C° 0 mm 2 mps 727 mmHg 9%
    21:00 +35°C° 0 mm 3 mps 727 mmHg 10%
    22:00 +34°C° 0 mm 3 mps 727 mmHg 11%
    23:00 +34°C° 0 mm 3 mps 727 mmHg 11%

    Tomorrow, 3 April, Friday

    Time Temperature Precipitation Wind Pressure Humidity
    00:00 +33°C° 0 mm 3 mps 727 mmHg 11%
    01:00 +30°C° 0 mm 2 mps 726 mmHg 13%
    02:00 +29°C° 0 mm 1 mps 726 mmHg 14%
    03:00 +27°C° 0 mm 1 mps 725 mmHg 15%
    04:00 +27°C° 0 mm 1 mps 725 mmHg 15%
    05:00 +27°C° 0 mm 1 mps 726 mmHg 15%
    06:00 +26°C° 0 mm 1 mps 726 mmHg 16%
    07:00 +30°C° 0 mm 2 mps 726 mmHg 13%
    08:00 +35°C° 0 mm 2 mps 727 mmHg 10%
    09:00 +39°C° 0 mm 3 mps 728 mmHg 7%
    10:00 +40°C° 0 mm 2 mps 727 mmHg 6%
    11:00 +42°C° 0 mm 2 mps 727 mmHg 6%
    12:00 +45°C° 0 mm 2 mps 727 mmHg 5%
    13:00 +44°C° 0 mm 1 mps 726 mmHg 5%
    14:00 +45°C° 0 mm 1 mps 725 mmHg 5%
    15:00 +42°C° 0 mm 0 mps 725 mmHg 5%
    16:00 +40°C° 0 mm 0 mps 724 mmHg 6%
    17:00 +41°C° 0 mm 1 mps 724 mmHg 7%
    18:00 +39°C° 0 mm 1 mps 724 mmHg 8%
    19:00 +37°C° 0 mm 1 mps 724 mmHg 8%
    20:00 +37°C° 0 mm 2 mps 725 mmHg 8%
    21:00 +35°C° 0 mm 2 mps 725 mmHg 9%
    22:00 +34°C° 0 mm 2 mps 725 mmHg 9%
    23:00 +31°C° 0 mm 1 mps 725 mmHg 10%

    Day after tomorrow, 4 April, Saturday

    Time Temperature Precipitation Wind Pressure Humidity
    00:00 +28°C° 0 mm 0 mps 725 mmHg 11%
    01:00 +30°C° 0 mm 1 mps 725 mmHg 11%
    02:00 +30°C° 0 mm 1 mps 725 mmHg 11%
    03:00 +30°C° 0 mm 1 mps 725 mmHg 11%
    04:00 +29°C° 0 mm 1 mps 725 mmHg 12%
    05:00 +28°C° 0 mm 1 mps 725 mmHg 13%
    06:00 +27°C° 0 mm 1 mps 725 mmHg 14%
    07:00 +31°C° 0 mm 1 mps 726 mmHg 11%
    08:00 +35°C° 0 mm 1 mps 727 mmHg 9%
    09:00 +40°C° 0 mm 1 mps 728 mmHg 6%
    10:00 +41°C° 0 mm 1 mps 728 mmHg 6%
    11:00 +43°C° 0 mm 1 mps 727 mmHg 5%
    12:00 +44°C° 0 mm 1 mps 727 mmHg 5%
    13:00 +45°C° 0 mm 1 mps 726 mmHg 5%
    14:00 +45°C° 0 mm 1 mps 726 mmHg 5%
    15:00 +46°C° 0 mm 1 mps 725 mmHg 5%
    16:00 +44°C° 0 mm 1 mps 725 mmHg 5%
    17:00 +42°C° 0 mm 1 mps 725 mmHg 6%
    18:00 +41°C° 0 mm 1 mps 725 mmHg 7%
    19:00 +39°C° 0 mm 1 mps 725 mmHg 8%
    20:00 +36°C° 0 mm 1 mps 725 mmHg 8%
    21:00 +35°C° 0 mm 2 mps 726 mmHg 9%
    22:00 +32°C° 0 mm 1 mps 726 mmHg 9%
    23:00 +31°C° 0 mm 1 mps 726 mmHg 10%

    5 April, Sunday

    Time Temperature Precipitation Wind Pressure Humidity
    00:00 +28°C° 0 mm 0 mps 726 mmHg 10%
    01:00 +28°C° 0 mm 0 mps 726 mmHg 10%
    02:00 +29°C° 0 mm 1 mps 725 mmHg 11%
    03:00 +29°C° 0 mm 1 mps 725 mmHg 11%
    04:00 +29°C° 0 mm 1 mps 726 mmHg 11%
    05:00 +28°C° 0 mm 1 mps 726 mmHg 11%
    06:00 +28°C° 0 mm 1 mps 726 mmHg 12%
    07:00 +31°C° 0 mm 2 mps 727 mmHg 13%
    08:00 +36°C° 0 mm 3 mps 728 mmHg 14%
    09:00 +39°C° 0 mm 3 mps 729 mmHg 15%
    10:00 +42°C° 0 mm 3 mps 729 mmHg 14%
    11:00 +42°C° 0 mm 2 mps 728 mmHg 12%
    12:00 +44°C° 0 mm 1 mps 728 mmHg 11%
    13:00 +44°C° 0 mm 1 mps 727 mmHg 10%
    14:00 +46°C° 0 mm 2 mps 726 mmHg 9%
    15:00 +47°C° 0 mm 2 mps 726 mmHg 7%
    16:00 +45°C° 0 mm 2 mps 726 mmHg 8%
    17:00 +43°C° 0 mm 2 mps 725 mmHg 9%
    18:00 +41°C° 0 mm 2 mps 725 mmHg 9%
    19:00 +40°C° 0 mm 2 mps 726 mmHg 10%
    20:00 +38°C° 0 mm 2 mps 726 mmHg 11%
    21:00 +37°C° 0 mm 2 mps 727 mmHg 11%
    22:00 +36°C° 0 mm 3 mps 726 mmHg 21%
    23:00 +34°C° 0 mm 3 mps 726 mmHg 30%

    6 April, Monday

    Time Temperature Precipitation Wind Pressure Humidity
    00:00 +33°C° 0 mm 4 mps 726 mmHg 40%
    01:00 +31°C° 0 mm 3 mps 726 mmHg 43%
    02:00 +31°C° 0 mm 3 mps 726 mmHg 45%
    03:00 +30°C° 0 mm 2 mps 726 mmHg 48%
    04:00 +30°C° 0 mm 2 mps 726 mmHg 49%
    05:00 +29°C° 0 mm 2 mps 726 mmHg 50%
    06:00 +29°C° 0 mm 2 mps 726 mmHg 51%
    07:00 +32°C° 0 mm 2 mps 727 mmHg 41%
    08:00 +36°C° 0 mm 2 mps 728 mmHg 30%
    09:00 +39°C° 0 mm 2 mps 729 mmHg 19%
    10:00 +42°C° 0 mm 4 mps 728 mmHg 15%
    11:00 +45°C° 0 mm 5 mps 728 mmHg 10%
    12:00 +47°C° 0 mm 6 mps 728 mmHg 5%
    13:00 +48°C° 0 mm 6 mps 727 mmHg 5%
    14:00 +48°C° 0 mm 6 mps 726 mmHg 5%
    15:00 +49°C° 0 mm 6 mps 726 mmHg 5%
    16:00 +47°C° 0 mm 5 mps 725 mmHg 5%
    17:00 +44°C° 0 mm 4 mps 725 mmHg 6%
    18:00 +43°C° 0 mm 3 mps 725 mmHg 6%
    19:00 +39°C° 0 mm 2 mps 725 mmHg 7%
    20:00 +37°C° 0 mm 2 mps 725 mmHg 8%
    21:00 +35°C° 0 mm 2 mps 725 mmHg 9%
    22:00 +35°C° 0 mm 2 mps 726 mmHg 9%
    23:00 +35°C° 0 mm 3 mps 726 mmHg 9%

    7 April, Tuesday

    Time Temperature Precipitation Wind Pressure Humidity
    00:00 +34°C° 0 mm 3 mps 726 mmHg 9%
    01:00 +33°C° 0 mm 3 mps 726 mmHg 10%
    02:00 +31°C° 0 mm 3 mps 726 mmHg 11%
    03:00 +30°C° 0 mm 2 mps 726 mmHg 12%
    04:00 +29°C° 0 mm 2 mps 726 mmHg 15%
    05:00 +28°C° 0 mm 2 mps 727 mmHg 17%
    06:00 +28°C° 0 mm 1 mps 727 mmHg 20%
    07:00 +30°C° 0 mm 2 mps 728 mmHg 22%
    08:00 +34°C° 0 mm 3 mps 728 mmHg 24%
    09:00 +37°C° 0 mm 4 mps 729 mmHg 26%
    10:00 +39°C° 0 mm 3 mps 728 mmHg 22%
    11:00 +40°C° 0 mm 3 mps 728 mmHg 17%
    12:00 +42°C° 0 mm 2 mps 728 mmHg 13%
    13:00 +43°C° 0 mm 2 mps 727 mmHg 11%
    14:00 +45°C° 0 mm 2 mps 726 mmHg 9%
    15:00 +45°C° 0 mm 3 mps 726 mmHg 8%
    16:00 +43°C° 0 mm 2 mps 725 mmHg 8%
    17:00 +42°C° 0 mm 2 mps 725 mmHg 8%
    18:00 +40°C° 0 mm 2 mps 725 mmHg 9%
    19:00 +39°C° 0 mm 3 mps 726 mmHg 9%
    20:00 +37°C° 0 mm 3 mps 726 mmHg 9%
    21:00 +35°C° 0 mm 3 mps 726 mmHg 8%
    22:00 +35°C° 0 mm 3 mps 726 mmHg 9%
    23:00 +34°C° 0 mm 3 mps 726 mmHg 9%
    Show more